Regional Weather Roundup
Issued by NWS

Home | Current Version | Previous Version | Text Only | Print | Product List | Glossary On
Versions: 1 2 3 4 5 6 7 8 9 10 11 12 13 14 15 16 17 18 19 20 21 22 23 24 25 26 27 28 29 30 31 32 33 34 35 36 37 38 39 40 41 42 43 44 45 46 47 48 49 50
000
ASUS45 KTFX 111810
RWRMT
MONTANA REGIONAL WEATHER ROUNDUP
NATIONAL WEATHER SERVICE GREAT FALLS MT
1100 AM MST THU FEB 11 2016

NOTE: "FAIR" INDICATES FEW OR NO CLOUDS BELOW 12000 FEET WITH NO
SIGNIFICANT WEATHER AND/OR OBSTRUCTIONS TO VISIBILITY.

MTZ001>007-043-111900-
WEST OF THE DIVIDE

CITY           SKY/WX    TMP DP  RH WIND       PRES   REMARKS
KALISPELL      MOSUNNY   40  32  73 CALM      30.29S
MISSOULA       MOSUNNY   36  31  82 S3        30.32S
BUTTE          CLOUDY    39  26  59 CALM      30.30R
MULLAN PASS    CLOUDY    33  31  92 S5        30.28F
ANACONDA         N/A     50  23  34 SW12      30.27S
DEER LODGE       N/A     43  32  65 N5        30.30S
HAMILTON         N/A     46  30  53 S7        30.29S
PLAINS           N/A     39  34  82 CALM      30.30F
$$

MTZ008-052>055-111900-
SOUTHWEST MONTANA

CITY           SKY/WX    TMP DP  RH WIND       PRES   REMARKS
BOZEMAN        SUNNY     40  26  57 N3        30.29R
DILLON         CLOUDY    40  26  57 SW17      30.30R
ENNIS          CLOUDY    41  25  52 S17       30.36F
TWIN BRIDGES     N/A     35  25  67 CALM      30.27R
$$

MTZ009-010-012-014-046-048-049-054-111900-
EAST SLOPES AND CENTRAL MONTANA

CITY           SKY/WX    TMP DP  RH WIND       PRES   REMARKS
CUT BANK       CLOUDY    50  19  29 W17       30.16S
GREAT FALLS    CLOUDY    54  25  32 W16G24    30.18R
MALMSTROM AFB  MOSUNNY   52  26  36 W14       30.19R
HELENA           N/A    N/A N/A N/A MISG      30.26R
CHOTEAU          N/A     54  19  26 W15G22    30.19R
CONRAD           N/A     54  20  26 W15       30.17R
$$

MTZ011-013-016-021-045-047-050-051-111900-
NORTH CENTRAL MONTANA

CITY           SKY/WX    TMP DP  RH WIND       PRES   REMARKS
HAVRE          PTSUNNY   39  31  72 N5        30.18R
LEWISTOWN      SUNNY     48  29  47 NW15      30.15R
N BAR RANCH      N/A     48  25  40 NW30      30.13R
CHINOOK          N/A     39  32  75 NW7       30.18R
$$

MTZ017>020-022>027-061-062-111900-
NORTHEAST MONTANA

CITY           SKY/WX    TMP DP  RH WIND       PRES   REMARKS
GLASGOW        CLOUDY    30  24  78 NE7       30.14R WCI  23
JORDAN           N/A     40  32  73 NW12      30.09R
SIDNEY         CLOUDY    27  21  80 NE12      30.13R VSB 1   WCI  16
WOLF POINT     CLOUDY    29  22  75 NE13      30.16R HAZE    WCI  19
PLENTYWOOD       N/A     19  14  79 N5        30.16R
POPLAR           N/A     25  19  80 NE13      30.16R WCI  13
SCOBEY           N/A     22  13  68 N7        30.12R WCI  14
$$

MTZ028>42-056>058-111900-
SOUTHCENTRAL AND SOUTHEAST MONTANA

CITY           SKY/WX    TMP DP  RH WIND       PRES   REMARKS
BAKER          LGT SNOW  33  29  85 W13       30.04R FOG     WCI  24
BILLINGS       MOSUNNY   57  23  26 NW26G37   30.16S
LIVINGSTON     SUNNY     54  22  28 W28       30.20R
MILES CITY     MOSUNNY   48  31  51 NW20G29   30.07R
EKALAKA          N/A     41  32  70 W23       30.00
FORSYTH          N/A     54  28  37 W21       30.09R
LAUREL           N/A     58  24  27 W18       30.13R
ROUNDUP          N/A     54  22  28 W15       30.04R
$$

REGIONAL REPORTS...DAKOTAS

CITY           SKY/WX    TMP DP  RH WIND       PRES   REMARKS
WILLISTON      LGT SNOW  24  19  81 NE5       30.16R VSB 1
MINOT          LGT SNOW  19   9  65 N5        30.17R
DICKINSON      LGT SNOW  22  18  85 NE13      30.04R FOG     WCI  10
BEACH          LGT SNOW  28  28 100 NE8       30.08R WCI  20
CROSBY         CLOUDY    18  14  86 NE5       30.20R
TIOGA          LGT SNOW  18  18 100 E6        30.18R WCI   9
WATFORD CITY   LGT SNOW  23  19  86 NE6       30.14R WCI  16
BISMARCK       LGT SNOW  24  17  74 VRB3      30.14S
GRAND FORKS    CLOUDY    12   3  67 SW7       30.25F WCI   1
FARGO          CLOUDY    14  -1  51 CALM      30.24F
BUFFALO SD       N/A     45  33  63 NW29G38   29.92R
RAPID CITY     SUNNY     57  27  31 NW12G18   29.99F
$$

REGIONAL REPORTS...WYOMING/IDAHO/WASHINGTON

CITY           SKY/WX    TMP DP  RH WIND       PRES   REMARKS
GILLETTE       CLOUDY    50  28  42 NW18      30.11R
SHERIDAN       PTSUNNY   54  25  32 NW21      30.12F
BUFFALO WY     CLOUDY    51  26  37 N20G40    30.13S
CODY           CLOUDY    54  21  28 N15G21    30.17F
YELLOWSTONE LA   N/A     33  20  58 CALM      30.36S
IDAHO FALLS    CLOUDY    18  15  88 N5        30.44R
SALMON         CLOUDY    19  16  86 CALM      30.45S
BOISE          SUNNY     38  29  70 S8        30.40S
SPOKANE        FOG       35  34  96 NE8       30.32S VSB 1/16WCI  29
$$

REGIONAL REPORTS...ALBERTA

CITY           SKY/WX    TMP DP  RH WIND       PRES   REMARKS
EDMONTON       CLOUDY    19  16  86 E6        30.18S WCI  11
CALGARY        PTSUNNY   43  34  70 NW10G18   30.17R
LETHBRIDGE     PTSUNNY   30  30 100 W9        30.22R WCI  22
MEDICINE HAT   CLOUDY    28  28 100 CALM      30.20R
$$

REGIONAL REPORTS...SASKATCHEWAN

CITY           SKY/WX    TMP DP  RH WIND       PRES   REMARKS
SWIFT CURRENT  CLOUDY    18  16  93 SE6       30.15R WCI   9
REGINA         FLURRIES  18  14  86 N6        30.20R WCI   9
SASKATOON      FLURRIES   7   1  78 NE6       30.32R WCI  -3
$$



USA.gov is the U.S. government's official web portal to all federal, state and local government web resources and services.